| time (UTC) | temp F | wind direction | speed knots | gust knots | rain 1hr in | rain 24hr in | rain mn in | humidity % | barometer mb |
| 20260508120023 | 55 | 174 | 6.1 | 13.9 | 0.00 | 0.00 | 0.00 | 53 | 1013.6 |
| 20260508114521 | 55 | 155 | 7.0 | 14.8 | 0.00 | 0.00 | 0.00 | 47 | 1013.4 |
| 20260508111515 | 56 | 209 | 6.1 | 17.4 | 0.00 | 0.00 | 0.00 | 47 | 1013.3 |
| 20260508110006 | 56 | 168 | 6.1 | 16.5 | 0.00 | 0.00 | 0.00 | 46 | 1013.3 |
| 20260508103008 | 56 | 202 | 6.1 | 13.0 | 0.00 | 0.00 | 0.00 | 43 | 1013.2 |
| 20260508101516 | 57 | 234 | 6.1 | 13.0 | 0.00 | 0.00 | 0.00 | 42 | 1013.1 |
| 20260508100033 | 57 | 173 | 5.2 | 15.6 | 0.00 | 0.00 | 0.00 | 41 | 1013.0 |
| 20260508094519 | 57 | 226 | 7.0 | 13.9 | 0.00 | 0.00 | 0.00 | 40 | 1013.0 |
| 20260508093015 | 57 | 208 | 6.1 | 16.5 | 0.00 | 0.00 | 0.00 | 39 | 1013.0 |
| 20260508091510 | 57 | 223 | 5.2 | 11.3 | 0.00 | 0.00 | 0.00 | 35 | 1013.1 |
| 20260508090018 | 58 | 105 | 5.2 | 12.2 | 0.00 | 0.00 | 0.00 | 32 | 1013.1 |
| 20260508084519 | 58 | 183 | 5.2 | 11.3 | 0.00 | 0.00 | 0.00 | 30 | 1013.1 |
| 20260508083030 | 59 | 139 | 3.5 | 11.3 | 0.00 | 0.00 | 0.00 | 29 | 1013.4 |
| 20260508081519 | 59 | 171 | 3.5 | 13.9 | 0.00 | 0.00 | 0.00 | 27 | 1013.5 |
| 20260508080019 | 59 | 128 | 0.9 | 7.0 | 0.00 | 0.00 | 0.00 | 26 | 1013.5 |
| 20260508074519 | 60 | 294 | 0.9 | 3.5 | 0.00 | 0.00 | 0.00 | 25 | 1013.5 |
| 20260508073022 | 62 | 302 | 0.0 | 3.5 | 0.00 | 0.00 | 0.00 | 26 | 1013.3 |
| 20260508071524 | 63 | 317 | 0.0 | 12.2 | 0.00 | 0.00 | 0.00 | 23 | 1013.0 |
| 20260508070003 | 63 | 168 | 6.1 | 13.0 | 0.00 | 0.00 | 0.00 | 23 | 1012.5 |
| 20260508064511 | 63 | 123 | 6.1 | 11.3 | 0.00 | 0.00 | 0.00 | 24 | 1012.5 |
| 20260508063004 | 64 | 145 | 5.2 | 11.3 | 0.00 | 0.00 | 0.00 | 24 | 1012.5 |
| 20260508061505 | 64 | 155 | 3.5 | 13.9 | 0.00 | 0.00 | 0.00 | 25 | 1012.6 |
| 20260508060004 | 65 | 65 | 3.5 | 9.6 | 0.00 | 0.00 | 0.00 | 26 | 1012.8 |
| 20260508054505 | 65 | 198 | 5.2 | 10.4 | 0.00 | 0.00 | 0.00 | 26 | 1012.8 |
| 20260508053003 | 65 | 211 | 5.2 | 13.9 | 0.00 | 0.00 | 0.00 | 27 | 1012.8 |
| 20260508051509 | 66 | 155 | 2.6 | 10.4 | 0.00 | 0.00 | 0.00 | 30 | 1012.8 |
| 20260508050004 | 67 | 144 | 3.5 | 9.6 | 0.00 | 0.00 | 0.00 | 30 | 1012.8 |
| 20260508044504 | 67 | 132 | 2.6 | 8.7 | 0.00 | 0.00 | 0.00 | 31 | 1012.8 |
| 20260508043004 | 66 | 187 | 3.5 | 8.7 | 0.00 | 0.00 | 0.00 | 37 | 1012.8 |
| 20260508041505 | 67 | 129 | 0.0 | 3.5 | 0.00 | 0.00 | 0.00 | 38 | 1012.9 |
| 20260508040005 | 68 | 112 | 0.9 | 3.5 | 0.00 | 0.00 | 0.00 | 36 | 1013.0 |
| 20260508034516 | 69 | 123 | 0.0 | 3.5 | 0.00 | 0.00 | 0.00 | 36 | 1012.9 |
| 20260508033012 | 69 | 128 | 0.0 | 5.2 | 0.00 | 0.00 | 0.00 | 35 | 1012.8 |
| 20260508031503 | 70 | 157 | 0.9 | 3.5 | 0.00 | 0.00 | 0.00 | 34 | 1012.8 |
| 20260508024513 | 72 | 160 | 1.7 | 5.2 | 0.00 | 0.00 | 0.00 | 33 | 1012.8 |
| 20260508023012 | 73 | 182 | 0.9 | 4.3 | 0.00 | 0.00 | 0.00 | 30 | 1012.7 |
| 20260508021511 | 74 | 202 | 0.9 | 4.3 | 0.00 | 0.00 | 0.00 | 29 | 1012.7 |
| 20260508020013 | 75 | 225 | 1.7 | 4.3 | 0.00 | 0.00 | 0.00 | 27 | 1012.8 |
| 20260508013010 | 76 | 113 | 0.0 | 3.5 | 0.00 | 0.00 | 0.00 | 24 | 1012.8 |
| 20260508011512 | 76 | 157 | 0.0 | 2.6 | 0.00 | 0.00 | 0.00 | 22 | 1012.8 |
| 20260508010025 | 76 | 183 | 0.0 | 3.5 | 0.00 | 0.00 | 0.00 | 24 | 1013.0 |
| 20260508004529 | 77 | 95 | 0.9 | 3.5 | 0.00 | 0.00 | 0.00 | 23 | 1013.1 |
| 20260508003013 | 77 | 157 | 0.9 | 4.3 | 0.00 | 0.00 | 0.00 | 23 | 1013.1 |
| 20260508001511 | 78 | 148 | 0.9 | 4.3 | 0.00 | 0.00 | 0.00 | 22 | 1013.2 |
| 20260508000018 | 78 | 194 | 1.7 | 4.3 | 0.00 | 0.00 | 0.00 | 23 | 1013.1 |
| 20260507234523 | 79 | 133 | 1.7 | 4.3 | 0.00 | 0.00 | 0.00 | 22 | 1013.3 |
| 20260507233024 | 79 | 167 | 0.9 | 6.1 | 0.00 | 0.00 | 0.00 | 23 | 1013.4 |
| 20260507231514 | 79 | 200 | 1.7 | 4.3 | 0.00 | 0.00 | 0.00 | 23 | 1013.6 |
| 20260507230017 | 79 | 315 | 0.0 | 5.2 | 0.00 | 0.00 | 0.00 | 25 | 1013.7 |
| 20260507224521 | 79 | 142 | 0.9 | 4.3 | 0.00 | 0.00 | 0.00 | 24 | 1013.9 |
| 20260507223017 | 79 | 205 | 2.6 | 5.2 | 0.00 | 0.00 | 0.00 | 24 | 1014.1 |
| 20260507221523 | 79 | 268 | 0.0 | 5.2 | 0.00 | 0.00 | 0.00 | 27 | 1014.3 |
| 20260507220005 | 78 | 291 | 0.0 | 3.5 | 0.00 | 0.00 | 0.00 | 26 | 1014.5 |
| 20260507213003 | 78 | 130 | 0.9 | 6.1 | 0.00 | 0.00 | 0.00 | 27 | 1014.8 |
| 20260507211503 | 77 | 321 | 0.0 | 6.1 | 0.00 | 0.00 | 0.00 | 30 | 1015.0 |
| 20260507210003 | 76 | 186 | 3.5 | 7.8 | 0.00 | 0.00 | 0.00 | 29 | 1015.1 |
| 20260507204503 | 75 | 205 | 3.5 | 7.0 | 0.00 | 0.00 | 0.00 | 28 | 1015.3 |
| 20260507203006 | 75 | 138 | 1.7 | 8.7 | 0.00 | 0.00 | 0.00 | 31 | 1015.4 |
| 20260507200007 | 74 | 212 | 4.3 | 11.3 | 0.00 | 0.00 | 0.00 | 31 | 1015.6 |
| 20260507194503 | 73 | 219 | 3.5 | 10.4 | 0.00 | 0.00 | 0.00 | 33 | 1015.8 |
| 20260507193005 | 73 | 189 | 2.6 | 9.6 | 0.00 | 0.00 | 0.00 | 37 | 1015.8 |
| 20260507191507 | 72 | 163 | 3.5 | 8.7 | 0.00 | 0.00 | 0.00 | 35 | 1015.9 |
| 20260507184511 | 71 | 204 | 1.7 | 7.8 | 0.00 | 0.00 | 0.00 | 37 | 1016.0 |
| 20260507183008 | 71 | 323 | 0.0 | 7.0 | 0.00 | 0.00 | 0.00 | 41 | 1016.1 |
| 20260507181510 | 70 | 234 | 0.0 | 7.0 | 0.00 | 0.00 | 0.00 | 42 | 1016.1 |
| 20260507180004 | 70 | 177 | 1.7 | 7.0 | 0.00 | 0.00 | 0.00 | 43 | 1016.2 |
| 20260507173021 | 68 | 152 | 2.6 | 6.1 | 0.00 | 0.00 | 0.00 | 45 | 1016.3 |
| 20260507171505 | 68 | 133 | 1.7 | 8.7 | 0.00 | 0.00 | 0.00 | 46 | 1016.3 |
| 20260507170010 | 67 | 292 | 0.0 | 6.1 | 0.00 | 0.00 | 0.00 | 49 | 1016.5 |
| 20260507163007 | 65 | 173 | 2.6 | 9.6 | 0.00 | 0.00 | 0.00 | 54 | 1016.4 |
| 20260507161525 | 64 | 189 | 5.2 | 9.6 | 0.00 | 0.00 | 0.00 | 53 | 1016.4 |
| 20260507160013 | 63 | 144 | 3.5 | 7.0 | 0.00 | 0.00 | 0.00 | 57 | 1016.3 |
| 20260507153018 | 60 | 198 | 3.5 | 10.4 | 0.00 | 0.00 | 0.00 | 64 | 1016.3 |
| 20260507151521 | 59 | 140 | 4.3 | 10.4 | 0.00 | 0.00 | 0.00 | 66 | 1016.2 |
| 20260507150019 | 58 | 195 | 4.3 | 9.6 | 0.00 | 0.00 | 0.00 | 68 | 1016.1 |
| 20260507144526 | 57 | 216 | 4.3 | 7.8 | 0.00 | 0.00 | 0.00 | 69 | 1016.1 |
| 20260507141522 | 55 | 177 | 3.5 | 10.4 | 0.00 | 0.00 | 0.00 | 73 | 1015.9 |
| 20260507140032 | 55 | 142 | 1.7 | 8.7 | 0.00 | 0.00 | 0.00 | 74 | 1015.9 |
| 20260507134514 | 54 | 175 | 4.3 | 9.6 | 0.00 | 0.00 | 0.00 | 76 | 1015.6 |
| 20260507133011 | 54 | 173 | 4.3 | 8.7 | 0.00 | 0.00 | 0.00 | 77 | 1015.4 |
| 20260507131530 | 54 | 115 | 3.5 | 9.6 | 0.00 | 0.00 | 0.00 | 77 | 1015.3 |
| 20260507124509 | 54 | 155 | 3.5 | 8.7 | 0.00 | 0.00 | 0.00 | 78 | 1015.2 |
| 20260507121516 | 55 | 142 | 4.3 | 11.3 | 0.00 | 0.00 | 0.00 | 75 | 1014.8 |